AQI (45)

Current Conditions for Foresthill, CA. Sunny, Dry   
Visibility: 10 miles
Foresthill Advisory text: No Warning

  Summary / Temperature 

Current Temperature
88.0°F
31.1°C
(24/hr Ago)
85.0°F
(Apparent temp)
85.6°F
Warm
Heat Index
84.7°F 

88.0°F/ 31.1°C
Noticeable discomfort

 Temp Rate:

 24/hr Difference:

 Avg Running Temp:

 Todays High:

 Todays Low:

 Y-days High:

 Y-days Low:

 Todays HeatIdx:

 Y-days HeatIdx:

 Evapotranspiration:

+0.2°F/hr 

+3°F

88.1°F

89.7°F 1:48pm

65.6°F 7:00am

86.3°F 1:41pm

64.9°F 7:17am

86.5°F 1:48pm

83.3°F 1:41pm

0.177 in

115' Above Ground

 Temperature:

 6'AGL VRS 115'AGL:

 Avg Running Temp:

 Humidity:

 Todays High:

 Todays Low:

 Y-days High:

 Y-days Low:

87.0°F 

-1°F

87.1°F

22% 

88.0°F 3:32pm

68.0°F 5:44am

86.0°F 5:00pm

67.0°F 5:28am

Temp & Humidity Graphs

  Wind 

Wind Speed

 5.0 mph

Gusting to

 8.0 mph

Wind from WNW

284°  WNW

Light breeze

 Avg speed:

 Wind Run:

 Peak Gust:

  2.0 mph 

41.0 miles

  16.0 mph 8:03am

  Almanac  

Moon age: 6 days,4 hours,51 minutes,38%

Waxing Crescent
45%
Illuminated
6 days in cycle

 Moonrise:

 Moonset:

 Sunrise:

 Sunset:

 Solar Noon:

1:19pm

11:42pm

6:33am

7:35pm

1:03pm

2min 25s less daylight tomorrow 

  Solar Radiation 

(Current Solar)
  547 W/m2 (87%)
(Todays High)
 867 W/m2@12:44pm
Feels like: 98.4°F in the sun

Rain

 Rain Today:

 Rain Rate (/hr):

 Rain last hour:

 Rain Yesterday:

 This Month:

 Season Total:

20 Days Since Last Rain Day

0.00 in

0.000 in

0.00 in

0.00 in

0.00 in

0.07 in

Updated Time

Updated: 9/1/14  4:23pm

(Updated  sec ago)

Humidity & Barometer

 Humidity:

 Wetbulb:

 Dew Point:

 Barometer:

22% 

66.0°F 

44.4°F 

29.776 inHg 

 Baro Trend:  Steady 
Northern Calif
Preparedness
Fire 
Level 

    UV Index  

(Current UV)
3.3  Medium
(Todays High) @ 12:43pm
8.9   Very High

Weather Underground 5 day Forecast

Mon Tue Wed Thu Fri
Clear Clear Clear Clear Clear
Clear Clear Clear Clear Clear
93 86 82 86 79
68 66 66 64 64

Foresthill Probe 2 Stats  
Foresthill Probe 2: is located on Thomas Street
at 3000 feet. The main Foresthill Weather site
is located on Melody ln at the 2860 foot elevation

Light Air
86.9°F
30.5°C
Temp Rate:
+0.3°F
1.0 mph
Gusting to
3.0 mph
(Humidity)
23%
Wind from SSE
163°  SSE
Updated: 01/09/14 - 16:23:06
 Todays High: 89.9°F 14:48
 Todays Low: 63.0°F 06:07
 Rain Today: 0.00 in
 Season Total: 0.08 in

Foresthill Wx: Monthly,Yearly, Highs and Lows 

Foresthill  
This Weather Data is coming from the main Foresthill
Weather site located on Melody ln at the 2860 foot
elevation
Not Foresthill Probe 2
Weather Data
Month
  High
Month
  Low
Year
High
Year
Low
Temp 89.7F
9/1/14
65.6F
9/1/14
96.4F
7/14/14
32.0F
2/4/14
Humidity 43%
9/1/14
22%
9/1/14
100%
3/1/14
11%
5/16/14
Heat Index 86.5F
9/1/14
65.7F
9/1/14
95.0F
7/14/14
35.5F
2/5/14
Wind Chill 89.7F
9/1/14
65.0F
9/1/14
96.4F
7/14/14
21.6F
2/5/14
Wind Gust 16 mph
9/1/14
0 mph
9/1/14
40 mph
3/12/14
0 mph
1/1/14
Barometer 29.83 in
9/1/14
29.77 in
9/1/14
30.55 in
1/14/14
29.47 in
2/28/14
ET 0.18 in
9/1/14
0.00 in
9/1/14
0.27 in
7/4/14
0.00 in
1/1/14
Dew Point 49.1F
9/1/14
41.4F
9/1/14
64.6F
8/4/14
5.1F
1/4/14
Infrared Satellite Regional Radar Satellite Imagery Sacramento,CA.  (click to enlarge)
NWS Weather Forecast - Outlook: Tonight and Tuesday
Tonight

Clear
Clear

Lo 66 °F
NWS forecast: Clear, with a low around 66. West wind 5 to 7 mph becoming calm.
Tuesday

Sunny
Sunny

Hi 89 °F
NWS forecast: Sunny, with a high near 89. East wind 7 to 9 mph becoming southwest in the afternoon.
NWS Weather Forecast - Summary
Updated: Monday, Sepember 1, 2014 - 2:41pm (PDT)
YR.NO 10 Day Weather forecast
Last update: 09/01/2014 @ 12:04
Next update: 09/02/2014 @ 01:00
Provided by: 22
      Temperature Precipitation Pressure Wind  
Today
09/01/2014
14:00 17:00 88°F   29.81 inHg Light breeze from west-southwest 7 mph
  17:00 23:00 88°F   29.79 inHg Light breeze from west 6 mph
  23:00 05:00 72°F   29.83 inHg Light air from east 2 mph
    (Click to enlarge)
meteogram

    Forecast for next 9 days

      Temperature Precip Pressure Wind  
Tuesday
09/02/2014
05:00 11:00 57°F   29.81 inHg Light breeze from east-northeast 4 mph
  11:00 17:00 84°F   29.81 inHg Light breeze from southwest 6 mph
  17:00 23:00 84°F   29.75 inHg Light breeze from southwest 7 mph
  23:00 05:00 64°F   29.79 inHg Light breeze from east 4 mph
      Temperature Precip Pressure Wind  
Wednesday
09/03/2014
05:00 11:00 55°F   29.75 inHg Light breeze from east-northeast 4 mph
  11:00 17:00 82°F   29.76 inHg Light breeze from west-southwest 5 mph
  17:00 23:00 82°F   29.71 inHg Light breeze from west-southwest 6 mph
  23:00 05:00 66°F   29.74 inHg Light air from east-northeast 2 mph
      Temperature Precip Pressure Wind  
Thursday
09/04/2014
05:00 11:00 55°F   29.72 inHg Light breeze from east-northeast 4 mph
  11:00 17:00 81°F   29.75 inHg Light breeze from west-southwest 5 mph
  17:00 23:00 84°F   29.73 inHg Light breeze from west-southwest 5 mph
  23:00 05:00 66°F   29.79 inHg Light air from east-northeast 3 mph
      Temperature Precip Pressure Wind  
Friday
09/05/2014
05:00 11:00 57°F   29.80 inHg Light breeze from east-northeast 7 mph
  11:00 17:00 84°F   29.83 inHg Light breeze from west-southwest 5 mph
  17:00 23:00 84°F   29.81 inHg Light breeze from west-southwest 6 mph
  23:00 05:00 70°F   29.87 inHg Light air from east 1 mph
      Temperature Precip Pressure Wind  
Saturday
09/06/2014
05:00 11:00 57°F   29.86 inHg Light breeze from east-northeast 4 mph
  11:00 17:00 82°F   29.86 inHg Light breeze from west-southwest 5 mph
  17:00 23:00 84°F   29.81 inHg Light breeze from west-southwest 6 mph
  23:00 05:00 64°F   29.83 inHg Light breeze from east-northeast 4 mph
      Temperature Precip Pressure Wind  
Sunday
09/07/2014
05:00 11:00 55°F   29.79 inHg Light breeze from east-northeast 4 mph
  11:00 17:00 84°F   29.79 inHg Light breeze from west-southwest 5 mph
  17:00 23:00 84°F   29.75 inHg Light breeze from west-southwest 6 mph
  23:00 05:00 64°F   29.77 inHg Light breeze from east 4 mph
      Temperature Precip Pressure Wind  
Monday
09/08/2014
05:00 11:00 54°F   29.75 inHg Light air from east-northeast 3 mph
  11:00 17:00 82°F   29.76 inHg Light breeze from west 4 mph
  17:00 23:00 82°F   29.71 inHg Light breeze from west-southwest 7 mph
  23:00 05:00 64°F   29.75 inHg Light air from east 3 mph
      Temperature Precip Pressure Wind  
Tuesday
09/09/2014
05:00 11:00 54°F   29.74 inHg Light breeze from east 4 mph
  11:00 17:00 81°F   29.76 inHg Light breeze from west-southwest 4 mph
  17:00 23:00 82°F   29.71 inHg Light breeze from west 6 mph
  23:00 05:00 64°F   29.77 inHg Light air from east-northeast 2 mph
      Temperature Precip Pressure Wind  
Wednesday
09/10/2014
05:00 11:00 54°F   29.78 inHg Light air from east-northeast 3 mph
  11:00 17:00 82°F   29.80 inHg Light breeze from west 4 mph
  17:00 23:00 86°F   29.75 inHg Light breeze from west 7 mph
  23:00 05:00 68°F   29.81 inHg Light air from east-northeast 2 mph

Weather History For Monday, September 1, 2014


On this Day - In Weather History ...
Data courtesy of weatherforyou.com
powered by Cumulus v1.9.3 (1059)
Ambient Weather VWS v14.00
Top Contact Website Map Copyright © 2007 - 2014 Foresthillweather.com Never base important decisions on this or any weather information obtained from the Internet